Tracking 22100 objects as of 20-Jan-2021
HD Live streaming from Space Station
objects crossing your sky now

ASTRON

Track ASTRON now!
ASTRON is classified as:


NORAD ID: 13901
Int'l Code: 1983-020A
Perigee: 5,103.1 km
Apogee: 199,103.1 km
Inclination: 41.7 °
Period: 5,925.8 minutes
Semi major axis: 108474 km
RCS: 7.9432 m2 (large)
Launch date: March 23, 1983
Source: Commonwealth of Independent States (former USSR) (CIS)
Launch site: TYURATAM MISSILE AND SPACE COMPLEX (TTMTR)
aabbcc
Your satellite tracking list
Your tracking list is empty




NASA's NSSDC Master Catalog

Two Line Element Set (TLE):
1 13901U 83020A   20311.83025404 -.00000982 +00000-0 +00000-0 0  9990
2 13901 041.7422 079.9860 8942225 349.8811 359.0197 00.24300430046449
Source of the keplerian elements: AFSPC